Zurück zum Katalog

MOLNIYA 1-29

AktivKommunikationHEO
NORAD 7780·PAYLOAD·🇷🇺 Russia

Gestartet Apr 29, 1975 von Plesetsk Cosmodrome

Loading…

Nächste Überflüge (nächste 24 Stunden)

TLE

AktuellSource: Space-Track

Epoche: Sep 14, 2026, 11:21 UTC

1 07780U 75036A   26257.47302599 -.00000151  00000-0 -25347-1 0  9995
2 07780  64.2118  50.8652 6941164 278.1942  14.7195  2.00627497376714

Verfolge MOLNIYA 1-29 in Echtzeit mit AllMySat

Download on the App Store